This demonstration page uses our WeatherBlox Daily Observations layout. Learn more.

Left ArrowRight Arrow

39.92423, -83.80882

Hourly Observations for July 16, 2019

Temp ( °F °C ) Dew Point ( °F °C ) Humidity (%) Winds ( mph kmh ) Pressure ( in mb ) Visibility ( mi km ) Precip ( " mm )
12:56 am 00:56 Mostly Clear 69 20.6 69 20.6 100 100 ESE 3 6 30.08 1019 10 16.0934 N/A
1:56 am 01:56 Cloudy 70 21.1 70 21.1 100 100 SSW 3 6 30.08 1019 10 16.0934 N/A
2:56 am 02:56 Cloudy 70 21.1 70 21.1 100 100 S 5 7 30.07 1018 10 16.0934 N/A
3:56 am 03:56 Cloudy 71 21.7 71 21.7 100 100 SSW 6 9 30.06 1018 10 16.0934 N/A
4:56 am 04:56 Cloudy 71 21.7 71 21.7 100 100 S 3 6 30.06 1018 10 16.0934 N/A
5:56 am 05:56 Mostly Clear 71 21.7 71 21.7 100 100 S 6 9 30.06 1018 10 16.0934 N/A
6:56 am 06:56 Cloudy 72 22.2 71 21.7 97 97 S 3 6 30.06 1018 10 16.0934 N/A
7:56 am 07:56 Cloudy 72 22.2 72 22.2 100 100 S 6 9 30.07 1018 10 16.0934 N/A
8:56 am 08:56 Cloudy 74 23.3 72 22.2 94 94 SSE 7 11 30.08 1019 10 16.0934 N/A
9:56 am 09:56 Cloudy 77 25 72 22.2 85 85 S 7 11 30.07 1018 10 16.0934 N/A
10:56 am 10:56 Mostly Cloudy 80 26.7 72 22.2 76 76 S 8 13 30.06 1018 10 16.0934 N/A
11:56 am 11:56 Mostly Sunny 82 27.8 73 22.8 74 74 SSW 12 19 30.05 1018 10 16.0934 N/A
12:56 pm 12:56 Mostly Sunny 83 28.3 73 22.8 72 72 SSW 9 15 30.04 1017 10 16.0934 N/A
1:56 pm 13:56 Mostly Cloudy 84 28.9 72 22.2 67 67 SSW 12 19 30.02 1017 10 16.0934 N/A
2:56 pm 14:56 Mostly Sunny 86 30 73 22.8 65 65 SSW 9 15 30 1016 10 16.0934 N/A
3:56 pm 15:56 Partly Cloudy 87 30.6 72 22.2 61 61 S 15 24 29.96 1015 10 16.0934 N/A
4:37 pm 16:37 Mostly Cloudy with Nearby Thunderstorms 82 28 70 21 66 66 W 21 33 29.91 1013 8 12.87472 0.001 0.001
4:52 pm 16:52 Cloudy with Light Rain 75 24 73 23 94 94 W 10 17 29.97 1015 10 16.0934 0.02 0.508
4:56 pm 16:56 Cloudy with Light Rain 75 23.9 73 22.8 94 94 W 8 13 29.97 1015 10 16.0934 0.02 0.508
5:56 pm 17:56 Mostly Cloudy with Light Rain 77 25 74 23.3 90 90 SW 6 9 29.96 1015 10 16.0934 0.01 0.254
6:56 pm 18:56 Partly Cloudy 80 26.7 75 23.9 85 85 WSW 7 11 29.96 1015 10 16.0934 0.001 0.001
7:56 pm 19:56 Sunny 79 26.1 76 24.4 90 90 WNW 3 6 29.95 1014 10 16.0934 N/A
8:56 pm 20:56 Partly Cloudy 77 25 75 23.9 94 94 N N/A 29.96 1015 10 16.0934 0.001 0.001
9:56 pm 21:56 Clear 75 23.9 75 23.9 100 100 NE 3 6 29.95 1014 10 16.0934 N/A
10:56 pm 22:56 Mostly Cloudy 74 23.3 74 23.3 100 100 VRB 6 9 29.96 1015 9 14.48406 N/A
11:05 pm 23:05 Mostly Cloudy 75 24 75 24 100 100 N 3 6 29.94 1014 10 16.0934 N/A
11:56 pm 23:56 Cloudy with Rain 73 22.8 73 22.8 100 100 WSW 7 11 29.97 1015 6 9.65604 0.2 5.08

Powered by AerisWeather